Temp
-7 -8 -6 -6 -5 -5 -4 -4 -4 -4 -4 -4 -5 -4 -4 -4 -4 -4 -4 -4 -4 -4 -5 -5 -5 -5 -6 -6 -6 -8 -9 -9 -9 -8 -8 -9 -10 -10 -10 -10 -10 -10 -10 -10 -10
-8 -7 -7 -6 -6 -5 -5 -4 -4 -4 -4 -4 -4 -4 -4 -4 -4 -4 -4 -4 -4 -4 -5 -4 -5 -4 -5 -6 -7 -7 -8 -8 -8 -8 -8 -8 -9 -10 -10 -10 -10 -10 -10 -10 -10
-9 -7 -8 -7 -6 -5 -5 -4 -4 -4 -4 -4 -4 -4 -4 -4 -4 -5 -5 -5 -5 -5 -5 -4 -5 -5 -5 -6 -6 -7 -7 -8 -8 -9 -9 -9 -10 -10 -10 -10 -10 -10 -10 -10 -9
-9 -8 -8 -7 -6 -6 -5 -4 -4 -4 -4 -4 -5 -5 -5 -5 -5 -5 -5 -5 -5 -5 -5 -5 -5 -6 -6 -7 -6 -6 -7 -8 -9 -8 -8 -8 -9 -10 -9 -10 -10 -10 -10 -9 -10
-8 -9 -8 -7 -6 -5 -5 -5 -5 -5 -4 -4 -5 -5 -5 -5 -5 -5 -5 -5 -5 -5 -5 -5 -6 -6 -6 -7 -7 -7 -9 -8 -8 -8 -9 -9 -9 -8 -9 -10 -10 -10 -9 -10 -10
-9 -8 -8 -7 -6 -6 -5 -5 -5 -5 -4 -5 -4 -5 -5 -4 -5 -5 -5 -5 -5 -5 -5 -5 -5 -6 -6 -6 -6 -7 -8 -9 -9 -10 -9 -9 -10 -9 -9 -10 -10 -9 -10 -10 -10
-9 -8 -9 -7 -6 -6 -5 -5 -5 -5 -5 -5 -4 -4 -5 -5 -5 -5 -5 -5 -5 -5 -5 -5 -5 -6 -6 -6 -6 -7 -8 -9 -10 -10 -9 -9 -10 -10 -10 -10 -10 -10 -10 -10 -10
-9 -9 -8 -7 -7 -6 -6 -5 -5 -5 -5 -5 -4 -4 -5 -5 -5 -5 -5 -5 -5 -5 -5 -6 -6 -6 -6 -7 -8 -8 -8 -9 -9 -9 -10 -10 -10 -10 -10 -10 -11 -10 -10 -10 -10
-10 -9 -9 -8 -7 -6 -6 -5 -5 -5 -5 -5 -5 -5 -5 -5 -5 -5 -5 -5 -5 -5 -5 -6 -6 -7 -8 -8 -9 -9 -9 -10 -10 -10 -10 -10 -10 -10 -10 -11 -11 -11 -10 -11 -11
-10 -9 -9 -9 -7 -7 -5 -6 -6 -5 -5 -5 -5 -5 -5 -5 -5 -6 -6 -5 -5 -5 -5 -6 -6 -7 -8 -9 -9 -9 -9 -10 -10 -10 -10 -11 -10 -10 -10 -10 -10 -10 -11 -11 -10
-10 -10 -8 -9 -7 -6 -6 -6 -6 -5 -5 -5 -5 -5 -5 -5 -6 -6 -6 -6 -6 -5 -5 -6 -6 -6 -8 -9 -9 -9 -10 -10 -10 -11 -11 -10 -10 -11 -10 -10 -10 -11 -10 -10 -10
-9 -11 -10 -9 -7 -7 -7 -7 -6 -6 -5 -5 -5 -5 -5 -5 -6 -6 -6 -6 -6 -5 -6 -6 -6 -7 -7 -8 -8 -9 -10 -10 -11 -11 -10 -10 -10 -10 -10 -10 -10 -10 -10 -10 -10
-10 -12 -11 -9 -8 -8 -7 -6 -6 -6 -6 -6 -6 -6 -6 -6 -6 -6 -5 -5 -5 -6 -6 -7 -7 -7 -7 -7 -8 -9 -10 -10 -10 -10 -10 -11 -10 -10 -10 -10 -10 -11 -11 -10 -10
-11 -12 -10 -9 -9 -7 -7 -7 -6 -6 -6 -6 -6 -6 -6 -6 -6 -6 -6 -6 -6 -7 -7 -6 -6 -7 -7 -7 -9 -9 -9 -9 -9 -10 -10 -10 -10 -10 -10 -9 -10 -11 -11 -11 -11
-10 -11 -11 -9 -8 -8 -8 -7 -7 -7 -7 -6 -6 -6 -6 -6 -6 -6 -6 -6 -6 -7 -7 -6 -7 -7 -8 -8 -8 -9 -8 -9 -9 -10 -9 -10 -10 -10 -10 -10 -10 -10 -11 -11 -11
-12 -11 -11 -10 -9 -8 -8 -7 -7 -7 -6 -6 -6 -7 -7 -7 -7 -7 -6 -6 -6 -6 -7 -7 -7 -8 -8 -8 -8 -8 -9 -9 -9 -10 -10 -10 -10 -10 -10 -11 -11 -11 -10 -11 -10
-12 -12 -13 -12 -10 -9 -8 -8 -8 -7 -7 -7 -7 -7 -7 -7 -7 -7 -6 -6 -7 -7 -7 -8 -8 -8 -8 -8 -8 -8 -9 -9 -9 -9 -10 -10 -10 -10 -10 -11 -11 -10 -10 -10 -10
-12 -12 -13 -12 -10 -9 -9 -8 -8 -7 -7 -7 -7 -7 -7 -7 -7 -7 -7 -7 -7 -8 -8 -8 -9 -8 -8 -8 -8 -8 -8 -9 -9 -9 -10 -10 -10 -10 -10 -10 -10 -10 -10 -10 -11
-12 -12 -12 -12 -11 -10 -9 -9 -8 -8 -7 -7 -7 -7 -7 -7 -7 -7 -7 -8 -8 -8 -8 -8 -8 -8 -8 -8 -8 -9 -9 -9 -9 -10 -9 -10 -10 -11 -10 -10 -10 -10 -11 -12 -12
-12 -11 -11 -11 -11 -10 -9 -9 -8 -8 -7 -7 -7 -8 -8 -8 -8 -7 -8 -8 -8 -8 -8 -9 -9 -9 -9 -8 -8 -9 -9 -9 -10 -10 -10 -10 -10 -10 -10 -10 -10 -11 -12 -12 -12
-12 -11 -11 -11 -10 -10 -10 -9 -8 -8 -8 -8 -8 -8 -9 -8 -7 -8 -8 -8 -8 -8 -9 -10 -10 -8 -8 -8 -8 -8 -9 -9 -9 -10 -10 -10 -10 -10 -10 -10 -11 -12 -12 -12 -11
-12 -11 -11 -11 -10 -11 -10 -9 -8 -8 -9 -9 -9 -9 -9 -8 -7 -8 -8 -8 -8 -8 -9 -9 -10 -10 -8 -9 -9 -9 -8 -8 -9 -9 -10 -10 -10 -11 -12 -12 -11 -12 -12 -12 -12
-12 -12 -11 -11 -10 -11 -10 -9 -9 -9 -9 -10 -9 -9 -9 -8 -8 -7 -7 -9 -9 -9 -9 -9 -9 -9 -9 -9 -9 -9 -8 -9 -9 -9 -10 -11 -11 -11 -11 -12 -12 -12 -12 -12 -12
-12 -12 -12 -11 -11 -11 -9 -9 -9 -10 -10 -10 -10 -10 -9 -9 -9 -9 -9 -9 -10 -9 -9 -9 -9 -9 -9 -9 -9 -9 -9 -9 -10 -11 -11 -11 -11 -11 -12 -12 -12 -12 -12 -12 -13
-12 -12 -12 -12 -11 -11 -10 -10 -10 -11 -11 -11 -11 -10 -9 -9 -9 -9 -9 -10 -9 -9 -9 -9 -9 -9 -9 -9 -9 -9 -9 -10 -10 -11 -10 -11 -11 -12 -12 -13 -12 -12 -12 -12 -12
-13 -13 -12 -12 -12 -12 -11 -11 -11 -11 -11 -11 -11 -11 -10 -9 -10 -10 -9 -10 -9 -9 -9 -9 -9 -9 -9 -9 -9 -10 -10 -10 -10 -10 -10 -11 -12 -12 -12 -12 -12 -12 -12 -12 -12
-13 -13 -13 -12 -12 -11 -11 -11 -11 -11 -11 -11 -11 -10 -10 -10 -10 -10 -10 -10 -10 -9 -9 -10 -10 -10 -9 -9 -9 -10 -10 -10 -10 -10 -11 -12 -12 -12 -12 -12 -12 -12 -12 -12 -13
Height
5871 5877 5879 5882 5884 5887 5889 5892 5893 5895 5896 5898 5898 5896 5896 5896 5896 5896 5896 5895 5893 5891 5890 5890 5889 5888 5887 5886 5885 5885 5885 5884 5885 5886 5885 5884 5885 5884 5883 5884 5884 5882 5879 5881 5878
5867 5873 5875 5879 5881 5884 5887 5890 5891 5893 5894 5897 5897 5896 5895 5895 5896 5895 5895 5894 5893 5892 5891 5891 5890 5889 5887 5886 5886 5885 5885 5885 5886 5885 5885 5885 5883 5884 5884 5884 5883 5881 5880 5879 5877
5864 5868 5872 5875 5878 5881 5886 5887 5889 5891 5893 5895 5895 5895 5895 5895 5895 5895 5895 5894 5893 5893 5893 5892 5890 5887 5887 5887 5887 5886 5886 5886 5886 5886 5884 5883 5883 5882 5883 5883 5879 5879 5878 5876 5875
5861 5866 5870 5872 5876 5879 5883 5885 5887 5890 5892 5894 5894 5894 5894 5895 5896 5895 5893 5893 5893 5893 5894 5892 5890 5887 5886 5886 5887 5886 5885 5885 5885 5885 5882 5881 5881 5881 5877 5876 5877 5877 5876 5878 5874
5856 5862 5866 5868 5873 5877 5880 5882 5886 5888 5891 5892 5894 5893 5893 5894 5894 5894 5892 5892 5892 5893 5892 5890 5890 5889 5889 5886 5886 5886 5887 5886 5885 5882 5877 5878 5877 5873 5873 5875 5876 5876 5875 5874 5872
5852 5857 5862 5865 5870 5874 5878 5881 5883 5887 5890 5891 5892 5892 5893 5893 5894 5894 5892 5892 5892 5892 5891 5891 5889 5888 5888 5889 5889 5887 5886 5884 5884 5881 5879 5880 5877 5875 5875 5875 5875 5875 5873 5868 5866
5848 5854 5859 5862 5867 5872 5876 5878 5883 5885 5888 5889 5890 5891 5892 5892 5892 5893 5892 5892 5891 5891 5891 5889 5888 5887 5886 5886 5885 5884 5885 5885 5883 5881 5880 5880 5879 5876 5876 5876 5875 5874 5872 5867 5863
5844 5850 5856 5860 5865 5870 5872 5876 5881 5883 5885 5888 5889 5889 5890 5890 5890 5892 5891 5891 5890 5890 5890 5888 5887 5886 5886 5886 5883 5883 5885 5884 5884 5882 5881 5881 5881 5878 5877 5875 5873 5872 5870 5868 5864
5841 5847 5852 5857 5861 5866 5870 5874 5878 5881 5884 5886 5888 5888 5889 5889 5890 5890 5890 5889 5888 5888 5887 5887 5887 5887 5886 5885 5884 5882 5883 5882 5883 5882 5881 5882 5881 5878 5877 5876 5871 5869 5868 5865 5864
5837 5841 5848 5854 5858 5863 5867 5873 5875 5879 5882 5884 5885 5888 5888 5888 5889 5889 5889 5888 5886 5886 5886 5887 5886 5885 5885 5884 5883 5881 5881 5881 5882 5881 5880 5880 5879 5878 5876 5875 5875 5872 5867 5863 5861
5832 5837 5844 5851 5855 5859 5866 5871 5876 5879 5881 5883 5884 5885 5885 5886 5888 5889 5887 5886 5886 5885 5884 5884 5885 5885 5884 5882 5881 5880 5879 5879 5879 5880 5878 5877 5876 5876 5874 5873 5872 5869 5867 5863 5860
5827 5831 5838 5847 5853 5857 5862 5867 5871 5874 5877 5880 5882 5883 5884 5884 5886 5887 5886 5886 5885 5884 5884 5884 5884 5883 5882 5882 5880 5880 5879 5879 5879 5880 5878 5873 5874 5874 5874 5871 5870 5865 5866 5864 5862
5824 5828 5836 5845 5850 5854 5859 5864 5869 5871 5874 5877 5879 5881 5882 5883 5884 5884 5883 5883 5884 5884 5883 5883 5884 5883 5881 5880 5879 5878 5878 5877 5876 5877 5875 5873 5871 5870 5873 5871 5871 5866 5865 5862 5858
5823 5826 5834 5841 5847 5851 5856 5861 5864 5868 5871 5875 5877 5879 5880 5880 5881 5881 5881 5882 5882 5883 5883 5883 5882 5881 5880 5880 5878 5877 5875 5875 5873 5873 5871 5872 5869 5863 5869 5869 5868 5862 5858 5851 5853
5818 5825 5830 5837 5841 5848 5854 5857 5861 5865 5868 5871 5875 5876 5877 5878 5878 5878 5879 5880 5880 5881 5883 5882 5881 5881 5879 5879 5878 5877 5876 5874 5873 5871 5870 5869 5868 5862 5863 5861 5859 5858 5852 5850 5848
5815 5819 5826 5832 5838 5845 5849 5854 5858 5864 5864 5867 5871 5873 5874 5874 5874 5875 5876 5878 5879 5880 5881 5880 5880 5879 5878 5878 5876 5876 5874 5873 5872 5871 5869 5865 5864 5862 5859 5856 5856 5851 5848 5848 5846
5812 5817 5822 5829 5837 5841 5846 5850 5856 5858 5861 5865 5868 5870 5870 5871 5871 5873 5875 5876 5878 5880 5880 5879 5878 5878 5877 5877 5876 5876 5875 5872 5871 5868 5867 5863 5860 5858 5856 5854 5850 5848 5845 5841 5837
5809 5813 5816 5825 5831 5837 5843 5847 5851 5855 5857 5862 5865 5866 5867 5868 5869 5870 5872 5875 5877 5878 5878 5878 5878 5877 5877 5877 5876 5874 5873 5871 5868 5866 5864 5860 5858 5853 5847 5846 5843 5839 5836 5831 5827
5805 5810 5816 5820 5829 5834 5839 5843 5848 5851 5855 5860 5861 5862 5863 5865 5868 5869 5871 5874 5874 5875 5877 5876 5876 5876 5874 5875 5875 5873 5871 5870 5867 5863 5860 5858 5854 5850 5845 5842 5837 5834 5829 5824 5819
5801 5806 5814 5820 5827 5831 5835 5839 5844 5849 5852 5856 5858 5858 5860 5862 5865 5867 5870 5871 5872 5873 5873 5873 5873 5874 5872 5874 5873 5872 5871 5869 5866 5862 5858 5855 5852 5847 5841 5837 5831 5826 5821 5817 5812
5797 5803 5810 5817 5822 5826 5830 5836 5841 5846 5850 5852 5854 5856 5858 5859 5863 5865 5868 5869 5870 5871 5870 5870 5870 5873 5871 5870 5869 5869 5867 5865 5862 5860 5856 5851 5848 5845 5841 5837 5832 5825 5819 5813 5807
5793 5799 5807 5813 5819 5822 5827 5834 5840 5844 5847 5848 5851 5854 5856 5859 5860 5862 5865 5868 5869 5870 5869 5868 5868 5865 5870 5868 5866 5866 5864 5863 5862 5858 5853 5849 5846 5842 5837 5831 5827 5822 5815 5808 5802
5789 5796 5803 5809 5814 5817 5825 5831 5835 5842 5844 5846 5849 5851 5854 5857 5859 5861 5865 5867 5867 5867 5867 5867 5866 5865 5866 5865 5863 5863 5862 5860 5856 5851 5848 5845 5841 5835 5831 5827 5822 5817 5811 5804 5797
5785 5793 5798 5804 5809 5815 5822 5828 5833 5837 5841 5843 5845 5847 5852 5856 5858 5861 5863 5865 5865 5864 5864 5864 5863 5863 5863 5860 5861 5860 5858 5856 5852 5848 5844 5840 5836 5832 5828 5824 5818 5812 5807 5801 5794
5780 5788 5795 5801 5805 5812 5819 5825 5830 5833 5837 5838 5841 5845 5850 5855 5857 5859 5861 5861 5859 5861 5861 5862 5861 5860 5859 5857 5858 5857 5855 5853 5849 5844 5840 5836 5832 5827 5822 5818 5813 5808 5802 5795 5788
5775 5785 5791 5797 5803 5811 5816 5821 5825 5827 5832 5834 5840 5845 5848 5850 5853 5856 5857 5857 5856 5856 5857 5858 5858 5857 5857 5855 5855 5853 5850 5848 5845 5841 5835 5831 5827 5823 5818 5812 5805 5798 5790 5783 5775
5771 5779 5786 5793 5800 5807 5812 5815 5817 5823 5827 5834 5839 5842 5845 5847 5850 5852 5854 5854 5854 5853 5855 5856 5856 5855 5854 5852 5852 5851 5847 5843 5839 5836 5832 5826 5820 5815 5810 5805 5798 5790 5781 5773 5765
Wind_Speed
38 22 12 14 19 19 18 15 11 8 7 6 6 5 4 3 3 2 2 4 1 2 2 2 3 3 3 1 4 11 14 15 12 13 10 7 7 8 12 13 17 27 28 20 22
30 27 18 16 20 21 20 16 12 10 8 7 7 5 4 2 3 4 5 3 1 2 2 4 4 5 5 0 6 12 13 12 15 16 11 8 10 13 15 18 24 24 30 31 25
28 24 20 19 22 22 21 18 14 12 8 8 7 7 5 3 4 4 4 2 1 3 4 4 6 6 5 5 6 7 7 1 8 15 9 13 11 12 15 16 21 28 29 25 23
27 24 20 20 23 24 23 19 16 12 10 9 8 8 6 5 5 4 4 2 1 3 4 4 1 4 5 5 7 4 2 1 11 7 5 6 13 17 22 23 24 24 26 21 26
32 32 22 19 24 26 23 19 17 13 11 9 8 9 7 7 5 6 5 4 3 3 3 2 2 0 2 3 4 2 5 7 4 4 5 2 1 10 14 15 17 15 19 24 21
28 31 28 23 26 25 22 20 16 14 11 9 8 9 8 7 6 6 5 4 2 4 5 5 6 3 5 7 9 7 5 7 9 5 2 1 1 5 7 9 10 14 20 28 21
32 30 26 26 26 25 25 19 18 15 11 8 8 8 10 8 8 7 7 6 3 5 7 7 6 5 8 11 7 3 9 10 12 7 3 7 4 4 8 12 15 19 26 30 30
37 32 26 26 27 28 24 22 20 17 12 8 6 6 8 9 10 8 8 7 4 4 6 8 9 9 10 6 2 4 2 9 4 4 1 8 8 6 10 17 15 20 23 27 30
33 34 30 22 26 26 24 20 20 16 13 9 5 4 6 7 8 10 8 7 6 5 6 9 8 6 7 5 8 8 4 3 1 3 3 4 12 13 12 13 22 26 30 27 32
31 40 37 26 24 26 28 23 20 17 14 11 6 5 7 6 10 9 9 7 5 4 5 9 7 8 9 10 11 11 9 4 1 2 5 7 17 15 18 18 18 21 25 30 23
15 47 46 33 27 23 26 22 20 18 16 12 8 6 7 8 9 9 9 7 7 4 5 5 6 7 8 13 16 16 9 5 7 9 7 13 18 9 12 14 19 28 14 11 9
17 35 52 33 31 28 25 24 22 20 17 13 11 7 6 8 10 11 9 9 8 4 2 3 6 7 9 10 10 13 13 7 8 8 12 16 16 14 15 18 21 7 5 3 4
20 37 34 35 34 27 27 25 27 22 18 15 12 9 8 8 10 12 11 10 6 2 1 3 7 6 3 4 2 8 17 17 20 19 19 23 23 21 17 19 18 14 18 2 9
19 41 36 33 27 31 29 27 25 23 19 15 11 9 10 12 12 13 11 8 6 5 5 8 7 5 4 4 3 6 9 14 20 26 27 26 24 27 17 18 17 26 28 12 13
18 28 35 28 27 28 28 27 26 25 20 14 12 14 15 16 14 13 12 11 11 7 8 6 5 5 2 3 4 8 11 13 10 11 15 17 19 24 26 26 21 23 23 30 24
20 16 38 26 27 27 28 28 28 25 21 18 19 15 15 15 16 15 14 13 13 9 7 6 4 5 6 6 5 8 5 10 12 11 17 23 22 24 24 21 17 23 27 27 26
28 21 38 32 29 28 28 29 29 26 21 20 18 13 12 15 17 16 14 14 11 11 7 4 4 7 10 8 9 6 4 8 10 12 16 21 24 21 22 20 25 30 33 35 33
29 27 32 35 26 29 30 31 31 26 24 23 18 14 17 15 18 18 17 15 14 10 8 5 4 5 6 7 11 9 6 5 8 12 16 20 22 25 29 31 35 36 36 36 43
32 30 28 41 28 31 31 33 29 26 25 23 19 17 17 19 18 17 16 15 15 12 11 6 4 6 9 7 9 8 8 11 13 14 20 22 25 27 32 32 35 37 37 43 40
32 31 33 33 34 34 35 33 29 26 25 22 19 17 17 20 19 18 17 17 18 15 13 9 9 7 12 9 9 9 8 9 12 16 19 20 23 26 31 35 39 40 40 40 43
34 33 33 34 35 34 33 30 28 26 23 20 19 18 21 23 20 20 19 20 16 14 13 11 12 9 12 13 11 12 14 15 19 20 21 24 28 29 31 33 34 35 36 40 41
40 34 36 33 34 33 33 29 25 23 23 20 19 20 20 22 24 24 21 19 15 16 13 12 14 19 12 17 18 15 16 17 19 21 22 24 29 30 29 31 31 32 36 40 44
41 35 34 35 32 35 32 28 26 26 23 22 20 21 20 21 21 19 12 6 9 11 11 13 15 17 17 17 17 18 21 21 23 25 27 29 31 30 29 29 31 34 38 42 47
42 39 34 30 30 31 27 27 27 26 26 24 22 24 22 18 15 11 8 9 13 12 14 14 15 17 17 18 19 21 21 21 22 25 28 29 28 27 27 28 31 35 39 44 47
44 40 39 36 33 31 29 27 27 28 28 26 25 24 20 15 13 11 8 11 17 13 14 14 16 18 20 20 19 19 20 19 22 26 29 28 27 26 28 31 35 39 42 45 48
47 44 40 34 35 34 31 31 31 33 32 29 25 21 17 17 15 11 11 15 15 15 13 13 15 18 16 17 18 18 19 21 23 26 26 27 26 27 31 35 39 43 48 51 54
48 45 42 40 37 34 32 32 33 32 32 27 23 21 20 18 14 13 15 13 16 15 13 12 14 14 14 16 15 15 20 25 26 25 24 25 27 32 35 40 44 48 52 55 55
Wind_Direction
227 234 238 224 206 202 204 199 202 212 216 222 213 201 216 242 259 204 164 124 97 11 11 22 347 53 42 356 198 184 177 199 223 244 257 190 154 249 275 287 301 317 305 318 330
215 222 241 233 206 203 203 196 197 203 208 210 210 208 226 243 223 183 158 133 63 5 34 16 345 18 23 26 213 205 214 231 252 260 250 246 201 231 264 284 299 300 307 312 322
223 216 242 228 209 203 201 194 193 198 199 205 209 222 233 224 208 171 167 143 324 344 13 15 356 14 10 344 277 220 229 314 273 263 283 261 233 246 272 292 281 298 305 309 325
222 229 223 217 210 201 198 192 193 187 191 208 219 228 230 223 211 190 173 183 65 27 26 45 5 24 345 317 286 248 155 257 256 256 296 262 236 244 263 274 281 288 300 331 347
228 228 217 213 208 199 196 194 190 184 193 206 228 227 221 229 209 196 188 174 134 127 211 236 290 200 136 246 260 127 186 213 177 99 169 200 90 236 238 250 272 285 336 344 333
214 206 211 208 201 202 195 190 183 183 194 203 229 233 222 229 233 217 190 211 209 255 266 272 244 244 238 220 219 185 195 93 109 144 199 189 98 254 250 263 275 320 337 328 325
209 207 201 208 199 199 195 181 185 178 182 199 225 238 232 221 227 222 201 204 238 282 289 273 262 247 259 254 258 218 167 138 142 165 291 329 2 311 322 339 323 334 328 326 326
210 210 209 204 203 200 192 186 186 175 178 202 221 242 241 226 212 217 217 224 235 261 280 282 293 274 283 287 285 243 218 202 191 117 92 5 344 306 321 316 320 311 325 324 317
213 213 216 208 203 201 192 190 188 180 185 193 203 237 249 243 220 222 224 224 236 270 301 295 294 281 232 184 190 213 200 185 23 68 30 355 334 325 320 301 310 331 323 318 319
213 218 219 217 208 204 191 195 186 187 192 198 199 234 243 239 252 232 228 227 248 276 289 283 267 253 253 187 204 241 246 250 232 217 225 295 321 299 287 286 310 310 308 305 303
262 206 206 214 212 200 199 205 194 188 199 212 222 218 251 220 238 248 242 239 247 256 275 280 262 250 227 231 249 237 213 149 224 256 294 312 322 338 310 301 295 311 312 323 274
265 206 201 213 205 203 201 204 211 192 195 205 215 215 228 246 237 248 236 244 251 245 243 304 276 250 239 226 247 227 222 224 232 247 279 291 293 303 285 287 294 211 217 88 25
256 190 197 206 203 206 209 207 198 194 194 198 205 209 224 244 244 241 242 238 237 170 321 286 260 257 285 319 303 232 223 236 255 255 259 270 278 273 283 272 273 264 211 48 27
225 193 190 199 197 196 198 197 194 194 190 196 208 232 247 245 246 241 237 234 200 157 219 236 245 249 274 293 220 236 241 248 257 255 263 267 265 282 297 294 288 310 291 17 352
228 209 199 204 196 200 195 194 193 191 183 201 247 263 257 245 243 230 220 205 187 196 228 267 255 257 296 310 333 312 304 307 302 262 279 273 282 293 306 307 304 313 332 326 328
210 240 190 192 200 200 197 194 189 189 201 232 255 248 246 242 231 220 210 204 207 206 224 259 265 264 269 290 316 329 325 307 295 272 263 276 280 291 307 310 300 305 314 318 319
203 215 191 190 205 200 198 193 194 199 210 220 227 239 243 233 224 217 212 204 208 210 221 271 287 275 269 300 307 325 319 302 312 293 278 281 290 301 301 302 305 306 307 309 321
203 207 203 197 208 200 200 200 202 202 210 227 228 236 239 225 223 215 210 198 199 209 220 242 206 295 292 313 317 332 333 325 309 305 305 300 303 305 305 310 313 316 319 326 332
200 199 205 204 200 197 200 203 203 206 211 225 228 239 233 227 225 221 205 198 211 220 218 216 261 291 295 325 325 327 340 330 321 323 320 318 310 308 310 315 315 320 328 328 325
200 196 197 195 197 197 202 202 201 202 212 216 229 238 227 224 225 219 204 207 215 214 222 225 255 266 291 302 303 317 330 317 314 318 316 314 311 310 313 318 325 332 327 328 326
203 201 195 194 191 196 200 197 199 199 213 223 234 231 226 219 210 214 209 213 211 216 234 251 265 271 289 298 307 321 319 323 322 322 320 317 313 317 317 321 323 323 325 323 320
201 201 197 193 195 200 199 195 195 203 219 232 233 223 223 220 214 215 210 223 236 237 241 249 260 274 287 293 299 304 302 318 321 317 318 318 317 321 322 321 324 324 322 322 321
203 194 187 194 197 203 198 198 199 208 222 232 231 226 217 224 220 231 204 186 222 229 241 249 255 268 280 286 293 302 315 319 323 324 325 318 321 322 326 326 324 322 320 318 320
199 200 196 194 192 200 200 198 210 215 222 224 228 228 221 223 234 246 243 242 250 252 251 252 258 266 272 274 297 305 314 323 325 318 313 316 320 321 321 319 318 316 316 316 316
198 200 201 201 196 204 201 202 207 214 214 220 222 228 230 217 235 227 229 248 255 259 259 257 260 263 272 285 295 305 316 319 314 309 310 315 319 321 319 316 314 315 313 314 315
200 194 193 198 204 208 206 209 209 207 211 216 218 224 228 228 234 242 238 256 271 274 265 260 258 262 273 287 300 313 316 311 308 311 315 316 316 314 318 320 320 319 320 319 318
195 194 203 206 206 204 203 200 203 203 208 210 213 212 218 229 240 246 250 257 255 269 273 258 250 260 276 285 302 314 315 315 319 319 314 312 314 320 322 323 322 321 319 319 318